Adak Airport

Airport
ICAO code: 
PADK
IATA Code: 
ADK
Summary
ICAO Region: 
NAM
Territory: 
Location: 
Adak Island, Alaska
Serving: 
Adak Island
Elevation: 
18 ft
Coordinates: 
Aerial View: 
51° 52' 40.8" N, 176° 38' 45.6" W
Airport BS: 
Bird Strike, Non Avian Wildlife Hazards to Aircraft
Airport WX: 
Fog
Metar
Observation
PADK 251156Z AUTO 04004KT OVC003 04/04 A2998 RMK AO2 SLP151 T00390039 10067 20011 56001 PWINO
Station
Adak Island, Adak Airport
Date/Time
2022-05-25 11:56:00
Wind direction
40°
Wind speed
04 kts
Lowest cloud amount
overcast
Temperature
3.9°C
Dew point
3.9°C
Humidity
100%
Weather condition
n/a

Description

Regional airport serving Adak, Alaska which is located on Adak Island in the Aleutian Island chain.

Climatology

Subpolar oceanic climate (Köppen climate classification Cfc) - moderate and fairly uniform temperatures and heavy rainfall. Fog is often present even when it is not raining. Summer weather is around 5 °F (2.8 °C) cooler than Southeast Alaska (Sitka), but the winter temperatures are nearly the same.

Runways

Designator Length Width Surface Rops
18/36 2318 61 ASPH-G Yes/Yes
5/23 2374 61 ASPH-G Yes/Yes
Airport map: 
Aerial View: 

SKYbrary Partners:

Safety knowledge contributed by: